Regional Weather Roundup
Issued by NWS

Home | Current Version | Previous Version | Text Only | Print | Product List | Glossary On
Versions: 1 2 3 4 5 6 7 8 9 10 11 12 13 14 15 16 17 18 19 20 21 22 23 24 25 26 27 28 29 30 31 32 33 34 35 36 37 38 39 40 41 42 43 44 45 46 47 48 49 50
000
ASUS43 KDTX 251010
RWRMI
MICHIGAN HOURLY REGIONAL WEATHER ROUNDUP
NATIONAL WEATHER SERVICE DETROIT/PONTIAC MI
600 AM EDT MON JUL 25 2016

NOTE: "FAIR" INDICATES FEW OR NO CLOUDS BELOW 12,000 FEET WITH NO
SIGNIFICANT WEATHER AND/OR OBSTRUCTION TO VISIBILITY.

MIZ047>049-052>055-059>063-066>070-074>076-081>083-251100-
SOUTHEAST LOWER MICHIGAN

CITY           SKY/WX    TMP DP  RH WIND       PRES   REMARKS
ADRIAN         CLOUDY    73  70  90 W3        29.94R
ALMA           CLOUDY    75  74  95 W8        29.89R
ANN ARBOR      CLOUDY    74  73  97 SW7       29.91S
BAD AXE        MOCLDY    74  72  95 W3        29.84S
CARO           MOCLDY    76  73  91 W5        29.85R
DETROIT CITY   CLOUDY    76  73  91 SW10      29.88S
DETROIT        CLOUDY    76  70  82 SW8       29.89F
FLINT          MOCLDY    81  71  71 W12       29.88F
GROSSE ILE     LGT RAIN  75  73  91 CALM      29.88S
HOWELL         PTCLDY    76  69  79 SW6       29.90S

CITY           SKY/WX    TMP DP  RH WIND       PRES   REMARKS
JACKSON        CLOUDY    74  70  87 W8        29.93S
LAMBERTVILLE   PTCLDY    76  72  88 W5        29.93R
LANSING        CLOUDY    76  68  76 W8        29.90S
LAPEER         FAIR      78  73  82 W7        29.86F
MASON          CLOUDY    75  67  76 W5        29.92R
MONROE         CLOUDY    75  73  94 W9G16     29.89S
MT. CLEMENS    CLOUDY    79  75  89 SW7       29.84F
PONTIAC        CLOUDY    78  71  79 SW9       29.88S
PORT HOPE        N/A     76  73  91 VRB5      29.81R
PORT HURON     CLOUDY    77  75  94 SW5       29.86S
TRI CITIES     CLOUDY    75  74  96 W8        29.87R FOG
MIDLAND        FAIR      73  72  94 W3        29.86R
TROY           CLOUDY    79  75  86 SW9       29.89F
SAGINAW HB     CLOUDY    77  72  83 W10       29.85S
$$
MIZ043>046-050>051-056>058-064>065-071>073-077>080-251100-
SOUTHWEST LOWER MICHIGAN

CITY           SKY/WX    TMP DP  RH WIND       PRES   REMARKS
BATTLE CREEK   CLOUDY    73  68  84 W8        29.94R
BENTON HARBOR  CLOUDY    75  67  76 W13       29.94R
BIG RAPIDS     CLOUDY    70  69  97 W5        29.89S
COLDWATER      MOCLDY    71  70  95 CALM      29.95S
FREMONT        FAIR      71  71 100 W3        29.89S
HOLLAND        CLOUDY    74  69  85 W7        29.92S
GRAND RAPIDS   CLOUDY    74  69  85 SW8       29.91S
IONIA          CLOUDY    74  67  78 W7        29.90R
KALAMAZOO      CLOUDY    75  66  73 W7        29.93R
LUDINGTON      CLEAR     69  67  92 NW7       29.89S
MARSHALL       CLOUDY    73  71  93 SW5       29.93S
MOUNT PLEASANT CLOUDY    74  69  85 W6        29.87S
MUSKEGON       CLOUDY    74  68  81 W7        29.91S
SOUTH HAVEN    CLOUDY    75  68  78 W8        29.93S
$$
MIZ016>042-251100-
NORTHERN LOWER MICHIGAN

CITY           SKY/WX    TMP DP  RH WIND       PRES   REMARKS
ALPENA         PTCLDY    72  67  84 VRB3      29.82S
BEAVER ISLAND  CLEAR     67  65  95 SW5       29.84S
BELLAIRE       CLOUDY    70  68  93 CALM      29.86S FOG
CADILLAC         N/A     65  65  97 W3        29.90S FOG
CHARLEVOIX     CLOUDY    69  68  97 SW6       29.88R
FRANKFORT      FOG       65  62  93 CALM      29.89R VSB 1/4
GAYLORD        PTCLDY    67  63  87 W3        29.88S
GRAYLING         N/A     67  66  97 CALM      29.88S FOG
HARBOR SPRINGS MOCLDY    68  68  99 W3        29.84S FOG
HOUGHTON LAKE  CLOUDY    70  68  93 NW3       29.88F
MANISTEE       PTCLDY    66  65  96 W6        29.89R
OSCODA         MOCLDY    72  71  98 W9        29.82S
PELLSTON       MOCLDY    67  64  90 W5        29.84S
ROGERS CITY    CLOUDY    69  65  89 W6        29.83S
TRAVERSE CITY  CLOUDY    73  69  87 W3        29.85S
$$
MIZ007>008-015-251100-
EASTERN UPPER MICHIGAN

CITY           SKY/WX    TMP DP  RH WIND       PRES   REMARKS
KINROSS        CLEAR     64  63  96 W6        29.81S
MACKINAC ISLAN PTCLDY    68  68 100 SW9       29.82S
NEWBERRY       CLEAR     63  62  96 W6        29.82S
S. S. MARIE    CLEAR     64  62  93 W5        29.80S
MUNISING         N/A     69  60  73 W8        29.82S
$$
MIZ004>006-011>014-085-251100-
CENTRAL UPPER MICHIGAN

CITY           SKY/WX    TMP DP  RH WIND       PRES   REMARKS
MANISTIQUE     CLEAR     65  63  92 W6        29.83S
ESCANABA       CLEAR     64  61  88 W7        29.85R
MENOMINEE        N/A    N/A N/A N/A MISG        N/A
SAWYER-GWINN   CLEAR     62  58  88 W6        29.87S
$$
MIZ001>003-009>011-084-251100-
WESTERN UPPER MICHIGAN

CITY           SKY/WX    TMP DP  RH WIND       PRES   REMARKS
IRON MOUNTAIN  CLEAR     66  59  78 W9        29.89R
HOUGHTON       PTCLDY    65  58  78 W16       29.85R
COPPER HARBOR    N/A     68  59  73 N13G22    29.81R
IRONWOOD       CLEAR     61  59  94 W6        29.93R
$$

ABBREVIATIONS USED IN REMARKS
   TC - TEMPERATURE IN CELSIUS
  WCI - WIND CHILL INDEX
   HX - HEAT INDEX
  VSB - VISIBILITY




USA.gov is the U.S. government's official web portal to all federal, state and local government web resources and services.